Location: Unspecified
(0.0000°N, 0.0000°E)
Time: 17:12:27
(UTC+00:00)

ISS - Pass Details

Date: 07 April 2026
Orbit: 415 x 425 km, 51.6° (Epoch: 22 April)

Event Time Altitude Azimuth Distance (km) Brightness Sun altitude
Rises 18:36:58 0° 307° (NW) 2,359 1.2 -8.7°
Reaches altitude 10° 18:39:15 10° 295° (WNW) 1,496 0.4 -9.2°
Maximum altitude 18:42:09 27° 235° (SW) 838 -1.7 -9.9°
Drops below altitude 10° 18:45:04 10° 174° (S) 1,496 -1.1 -10.7°
Sets 18:47:22 0° 162° (SSE) 2,360 -0.2 -11.2°
